Presure
217 213 213 215 208 220 231 157 144 160 248 165 200 190 168 145 141 186 183 128 158 222 237 230 213 238 231 231 233 218 214 254
200 199 189 208 203 204 200 201 196 214 222 222 214 177 196 214 211 207 213 203 221 201 198 196 176 223 220 208 218 234 214 216
151 173 201 196 192 203 192 193 207 202 203 221 196 202 204 206 191 210 213 187 189 183 194 191 204 188 199 197 203 211 230 223
198 198 195 195 146 184 190 181 195 193 193 193 194 185 181 184 188 198 194 201 199 202 198 195 201 196 194 195 186 193 227 203
207 204 205 204 203 200 205 206 195 196 192 188 185 198 196 191 183 188 182 184 187 193 194 193 196 193 198 208 199 207 180 236
198 202 206 201 196 194 193 198 200 204 200 191 188 188 190 185 188 191 194 185 192 187 193 194 192 199 194 184 210 222 215 182
191 190 192 197 195 197 197 200 197 203 207 210 195 188 185 180 193 190 197 188 190 193 186 191 203 195 205 189 180 174 223 194
171 176 189 186 189 192 192 193 192 193 197 205 208 209 198 192 188 189 193 194 197 200 205 193 192 189 178 187 211 199 203 122
188 181 186 188 184 180 183 185 190 192 193 195 201 207 211 210 202 198 173 195 187 186 196 200 196 191 180 195 133 203 193 226
192 193 192 199 196 201 199 183 180 185 187 186 192 195 200 202 207 204 186 194 177 180 189 190 195 192 191 186 183 173 173 185
198 205 204 195 204 208 207 204 201 184 177 180 185 192 197 198 200 189 184 194 195 192 193 191 196 198 198 208 190 186 142 198
205 198 196 196 198 212 206 205 209 206 199 196 204 202 199 204 202 194 191 189 186 191 189 186 194 201 201 201 112 197 190 206
210 204 226 222 215 222 209 230 212 233 223 206 198 207 207 207 209 211 204 204 199 204 202 193 201 197 210 106 124 200 193 194
204 210 231 234 262 229 232 240 241 234 231 223 207 208 208 206 213 214 200 196 205 199 193 204 202 207 215 211 111 81 195 199
222 188 113 129 117 211 217 215 217 249 242 237 234 238 234 237 223 204 208 199 206 228 231 242 220 200 203 203 188 123 203 190
201 204 229 207 208 204 197 170 224 215 208 198 221 229 225 235 236 251 237 233 205 221 232 231 230 192 179 190 196 202 191 191
197 200 230 248 220 197 234 234 221 240 192 217 193 241 239 224 212 237 224 202 294 240 228 145 205 186 173 191 196 184 195 190
266 243 269 229 229 201 198 231 232 236 213 208 221 236 217 253 202 207 276 196 201 200 184 155 196 194 178 206 211 183 198 184
279 275 259 241 234 202 243 196 237 249 215 240 220 252 248 232 254 242 147 172 149 174 188 194 189 169 184 168 203 202 178 170
294 292 84 243 278 263 249 235 246 254 121 254 258 253 269 206 211 171 134 166 184 180 170 180 186 167 177 175 157 191 195 194
Wind_Speed
48 49 46 42 46 42 39 68 69 66 39 67 47 54 63 68 67 56 57 61 58 38 34 33 35 35 36 34 33 33 30 27
54 55 66 47 48 45 49 47 46 40 39 37 40 56 49 40 43 44 43 44 39 40 41 39 48 32 34 31 30 30 29 29
59 61 55 53 56 51 52 52 45 44 42 39 46 45 44 44 50 42 42 49 47 48 42 42 34 42 35 33 29 30 29 27
58 59 60 58 67 61 57 57 51 50 47 45 45 51 54 50 49 45 45 45 44 41 40 39 34 36 40 37 37 33 32 28
55 54 54 54 54 56 58 54 54 52 53 52 54 50 50 50 53 49 52 48 46 43 40 41 39 37 38 35 35 34 36 28
53 53 52 55 55 56 59 60 59 56 53 54 57 57 56 55 54 52 49 51 47 47 42 42 42 38 39 39 37 37 32 30
62 60 59 56 56 56 57 57 60 62 59 55 57 59 59 60 60 57 55 54 49 48 46 45 43 42 41 41 42 36 35 33
63 64 66 63 64 61 61 62 62 64 66 62 57 56 60 61 61 59 56 55 52 52 51 50 46 43 47 43 41 36 36 40
73 70 71 69 68 66 66 67 65 67 70 70 68 62 57 58 60 60 50 54 51 50 52 52 51 47 47 44 48 35 34 32
76 77 77 76 75 74 73 71 70 70 75 71 73 68 66 62 58 57 53 52 51 54 52 53 54 50 47 51 48 42 41 33
80 79 80 76 79 78 76 77 76 75 74 77 75 73 68 66 63 54 50 55 58 56 55 55 55 56 51 45 53 43 29 34
85 79 76 77 81 83 80 81 81 79 79 80 79 79 78 73 70 59 55 53 57 55 52 59 54 57 55 44 31 42 45 36
84 77 80 84 83 80 82 78 76 75 78 81 79 77 83 79 75 71 66 64 65 65 62 54 57 57 57 39 36 45 46 40
85 88 73 75 71 79 77 74 77 76 75 80 83 83 82 80 76 73 62 61 67 60 57 64 55 55 53 45 41 25 46 45
85 79 42 50 42 77 77 78 75 77 81 81 81 79 75 75 75 67 72 71 68 68 65 60 57 50 50 49 46 33 45 49
97 96 91 90 92 81 75 68 83 81 74 73 75 76 74 69 66 61 57 59 66 65 58 50 46 55 60 50 49 47 47 47
98 100 94 92 97 89 94 94 91 85 75 82 64 82 79 60 51 55 55 65 55 58 52 47 55 66 61 59 53 59 43 48
102 100 98 102 95 94 93 91 90 92 86 72 79 80 59 67 53 57 59 52 50 48 57 50 68 59 69 52 49 47 51 53
99 100 101 99 98 99 100 84 94 93 85 85 76 85 78 64 51 35 54 47 58 52 59 64 71 50 68 48 58 51 49 40
92 92 26 104 100 102 102 101 99 98 26 91 89 85 78 68 45 48 49 59 47 69 69 71 77 55 58 52 46 59 61 54
Wind_Direction
286 287 283 283 280 281 276 271 272 272 274 273 274 272 274 274 275 272 276 277 278 287 296 295 295 299 296 300 304 286 285 318
281 282 280 285 279 279 278 275 273 276 275 272 271 272 272 272 273 277 278 279 286 282 284 283 282 298 299 292 301 308 286 283
277 278 282 282 281 279 273 278 283 276 278 273 274 274 273 274 273 277 278 274 275 275 280 280 287 279 285 282 291 302 307 303
281 281 280 280 276 277 276 270 278 276 273 271 273 269 269 269 273 279 278 280 282 284 283 283 287 283 281 281 278 283 308 284
272 274 276 278 279 280 279 276 274 273 273 271 269 273 269 268 268 269 269 271 275 280 282 283 283 283 288 293 286 297 274 304
279 278 276 273 274 275 278 280 278 272 268 270 272 272 272 271 272 271 272 267 276 272 281 283 285 287 284 276 298 299 298 274
278 278 277 274 272 272 271 271 274 276 272 267 267 270 269 269 275 275 278 273 278 281 277 284 286 285 291 277 273 284 300 282
282 281 278 279 278 275 273 274 273 274 277 275 267 262 263 266 269 272 275 279 282 281 281 280 281 280 281 277 297 292 292 265
278 277 278 277 277 278 278 279 275 274 275 276 275 270 263 261 263 265 269 273 277 279 279 279 279 279 277 287 270 292 288 298
275 276 277 277 276 274 273 275 276 277 277 276 278 278 278 272 269 268 269 270 272 274 278 279 282 278 279 278 279 279 273 291
275 274 276 277 276 274 272 270 267 269 271 273 274 273 273 275 273 267 266 273 274 275 277 280 285 284 279 280 278 278 282 283
271 272 272 272 274 275 273 273 271 268 265 268 267 270 271 269 269 270 270 271 270 274 274 280 282 282 279 274 263 274 277 283
274 275 271 270 272 271 272 271 269 269 262 267 269 268 268 269 270 271 272 272 273 277 277 274 279 278 275 265 266 273 271 273
277 274 272 273 269 267 268 269 269 267 266 261 264 265 266 269 269 269 270 271 272 271 268 273 271 274 263 262 267 261 268 273
272 275 270 273 277 271 270 272 270 268 266 266 265 265 264 265 267 269 271 270 270 267 264 262 261 259 262 260 259 267 265 268
278 276 267 273 274 272 266 264 269 272 266 264 265 267 266 266 267 271 266 264 270 268 265 259 249 253 268 255 254 257 262 265
276 275 265 267 265 274 269 262 268 266 263 270 265 264 267 269 264 272 257 262 266 262 263 248 248 261 269 259 250 260 257 261
275 272 268 267 266 270 270 263 267 265 267 266 268 268 266 268 253 254 271 265 267 264 265 273 259 258 268 249 240 260 247 261
267 266 266 266 264 267 263 271 264 264 265 265 264 270 270 263 266 254 243 250 270 260 261 254 252 265 262 254 246 246 259 271
264 261 274 264 259 258 259 263 262 259 257 262 266 267 268 242 242 251 249 267 239 242 272 250 249 263 269 271 249 257 252 251